Regional Weather Roundup
Issued by NWS

Home | Current Version | Previous Version | Text Only | Print | Product List | Glossary Off
Versions: 1 2 3 4 5 6 7 8 9 10 11 12 13 14 15 16 17 18 19 20 21 22 23 24 25 26 27 28 29 30 31 32 33 34 35 36 37 38 39 40 41 42 43 44 45 46 47 48 49 50

000
ASUS43 KDTX 211810
RWRMI
MICHIGAN HOURLY REGIONAL WEATHER ROUNDUP
NATIONAL WEATHER SERVICE DETROIT/PONTIAC MI
200 PM EDT SAT OCT 21 2017

NOTE: "FAIR" INDICATES FEW OR NO CLOUDS BELOW 12,000 FEET WITH NO
SIGNIFICANT WEATHER AND/OR OBSTRUCTION TO VISIBILITY.

MIZ047>049-052>055-059>063-066>070-074>076-081>083-211900-
SOUTHEAST LOWER MICHIGAN

CITY           SKY/WX    TMP DP  RH WIND       PRES   REMARKS
ADRIAN         MOSUNNY   72  51  47 SW10      30.19F
6HR MIN TEMP:  46; 6HR MAX TEMP:  72;

ALMA           CLOUDY    72  41  33 S12G20    30.12F
ANN ARBOR      MOSUNNY   72  54  53 S8        30.18F
BAD AXE        MOSUNNY   72  51  48 S12       30.15F
CARO           MOSUNNY   75  46  36 S14       30.14F
DETROIT CITY   MOSUNNY   71  55  56 SW7       30.19F
6HR MIN TEMP:  53; 6HR MAX TEMP:  71;

DETROIT        CLOUDY    71  56  58 SE6       30.20F
6HR MIN TEMP:  52; 6HR MAX TEMP:  72;

FLINT          CLOUDY    73  49  42 S13       30.16F
6HR MIN TEMP:  52; 6HR MAX TEMP:  73;

GROSSE ILE     MOSUNNY   64  56  73 SE5       30.19F
6HR MIN TEMP:  57; 6HR MAX TEMP:  65;

HILLSDALE      PTSUNNY   70  48  46 S8        30.18F
HOWELL         MOSUNNY   73  48  42 SW13      30.16F
6HR MIN TEMP:  50; 6HR MAX TEMP:  73;


CITY           SKY/WX    TMP DP  RH WIND       PRES   REMARKS
JACKSON        MOSUNNY   73  47  39 S12       30.16F
6HR MIN TEMP:  50; 6HR MAX TEMP:  73;

LAMBERTVILLE   PTSUNNY   74  53  48 SW3       30.19F
6HR MIN TEMP:  50; 6HR MAX TEMP:  75;

LANSING        PTSUNNY   72  44  36 S15       30.14F
6HR MIN TEMP:  54; 6HR MAX TEMP:  73;

LAPEER         FAIR      72  51  47 SW9G16    30.17F
6HR MIN TEMP:  45; 6HR MAX TEMP:  73;

MASON          PTSUNNY   73  46  37 S8        30.15F
MONROE         MOSUNNY   72  54  53 S10       30.18F
6HR MIN TEMP:  47; 6HR MAX TEMP:  73;

MT. CLEMENS    PTSUNNY   71  59  65 S12       30.17F
6HR MIN TEMP:  49; 6HR MAX TEMP:  71;

PONTIAC        CLOUDY    70  54  56 S8        30.18F
6HR MIN TEMP:  52; 6HR MAX TEMP:  70;

PORT HOPE        N/A     71  51  49 S8        30.13F
6HR MIN TEMP:  59; 6HR MAX TEMP:  71;

PORT HURON     CLOUDY    73  55  53 S12G17    30.19F
TRI CITIES     PTSUNNY   75  46  35 SW14      30.12F
6HR MIN TEMP:  55; 6HR MAX TEMP:  75;

MIDLAND        FAIR      74  46  36 S8        30.11F
6HR MIN TEMP:  54; 6HR MAX TEMP:  75;

TROY           PTSUNNY   72  53  50 S6        30.20F
SAGINAW HB     PTSUNNY   73  45  35 S15       30.12F
$$
MIZ043>046-050>051-056>058-064>065-071>073-077>080-211900-
SOUTHWEST LOWER MICHIGAN

CITY           SKY/WX    TMP DP  RH WIND       PRES   REMARKS
BATTLE CREEK   PTSUNNY   73  44  35 S16G24    30.13F
6HR MIN TEMP:  54; 6HR MAX TEMP:  73;

BENTON HARBOR  MOSUNNY   72  49  44 S13G22    30.10F
6HR MIN TEMP:  56; 6HR MAX TEMP:  73;

BIG RAPIDS     PTSUNNY   72  40  31 SW10G23   30.09S
6HR MIN TEMP:  48; 6HR MAX TEMP:  72;

COLDWATER      MOSUNNY   70  47  44 S5        30.16F
6HR MIN TEMP:  56; 6HR MAX TEMP:  71;

FREMONT        FAIR      71  50  48 S20       30.08F
HOLLAND        CLOUDY    70  49  47 S13       30.10F
6HR MIN TEMP:  55; 6HR MAX TEMP:  71;

GRAND RAPIDS   CLOUDY    73  46  38 S14       30.11F
6HR MIN TEMP:  53; 6HR MAX TEMP:  73;

IONIA          FAIR      73  42  33 S13       30.11F
6HR MIN TEMP:  51; 6HR MAX TEMP:  73;

KALAMAZOO      MOSUNNY   71  46  40 S13       30.13F
6HR MIN TEMP:  54; 6HR MAX TEMP:  71;

LUDINGTON      MOSUNNY   70  53  53 S13       30.03F
6HR MIN TEMP:  56; 6HR MAX TEMP:  71;

MARSHALL       PTSUNNY   72  46  40 S13       30.14F
6HR MIN TEMP:  54; 6HR MAX TEMP:  72;

MOUNT PLEASANT PTSUNNY   74  43  32 S8        30.10F
6HR MIN TEMP:  53; 6HR MAX TEMP:  74;

MUSKEGON       CLOUDY    73  50  44 S18G25    30.08F
6HR MIN TEMP:  58; 6HR MAX TEMP:  73;

SOUTH HAVEN    CLOUDY    73  46  38 S15G22    30.10F
$$
MIZ016>042-211900-
NORTHERN LOWER MICHIGAN

CITY           SKY/WX    TMP DP  RH WIND       PRES   REMARKS
ALPENA         MOSUNNY   74  48  39 SE9       30.08F
6HR MIN TEMP:  41; 6HR MAX TEMP:  75;

BEAVER ISLAND  MOSUNNY   70  49  47 S7G17     30.00S
6HR MIN TEMP:  62; 6HR MAX TEMP:  70;

BELLAIRE       CLOUDY    72  40  31 S12G17    30.03F
6HR MIN TEMP:  55; 6HR MAX TEMP:  73;

CADILLAC       CLOUDY    70  42  35 S14       30.07F
CHARLEVOIX     CLOUDY    69  46  43 S8G17     30.03F
FRANKFORT      CLOUDY    72  49  44 S15G21    30.01F
GAYLORD        CLOUDY    69  41  36 S14       30.06F
6HR MIN TEMP:  54; 6HR MAX TEMP:  71;

GRAYLING       MOSUNNY   73  38  28 S9G18     30.08F
6HR MIN TEMP:  40; 6HR MAX TEMP:  73;

HARBOR SPRINGS CLOUDY    69  40  35 SW7       30.03F
HOUGHTON LAKE  MOSUNNY   71  46  40 S14       30.10F
6HR MIN TEMP:  47; 6HR MAX TEMP:  72;

MANISTEE       CLOUDY    70  52  52 S7G20     30.02F
OSCODA         MOSUNNY   70  52  53 S7G18     30.10F
6HR MIN TEMP:  52; 6HR MAX TEMP:  70;

PELLSTON       CLOUDY    73  38  27 SW9       30.03F
6HR MIN TEMP:  57; 6HR MAX TEMP:  73;

ROGERS CITY    CLOUDY    69  49  49 S8        30.06F
TRAVERSE CITY  CLOUDY    74  40  29 VRB7G18   30.00F
6HR MIN TEMP:  62; 6HR MAX TEMP:  75;

$$
MIZ007>008-015-211900-
EASTERN UPPER MICHIGAN

CITY           SKY/WX    TMP DP  RH WIND       PRES   REMARKS
KINROSS        MOSUNNY   68  49  50 SE12      30.03F
6HR MIN TEMP:  52; 6HR MAX TEMP:  70;

MACKINAC ISLAN CLOUDY    67  49  51 CALM      30.02F
6HR MIN TEMP:  60; 6HR MAX TEMP:  69;

NEWBERRY       CLOUDY    66  52  61 S18G24    29.99S
6HR MIN TEMP:  58; 6HR MAX TEMP:  67;

S. S. MARIE    CLOUDY    69  52  54 SE9       30.02F
6HR MIN TEMP:  50; 6HR MAX TEMP:  69;

MUNISING         N/A     69  54  58 S18G31    29.89F
6HR MIN TEMP:  61; 6HR MAX TEMP:  69;

$$
MIZ004>006-011>014-085-211900-
CENTRAL UPPER MICHIGAN

CITY           SKY/WX    TMP DP  RH WIND       PRES   REMARKS
MANISTIQUE     CLOUDY    62  55  78 S10G17    29.98F
6HR MIN TEMP:  58; 6HR MAX TEMP:  63;

ESCANABA       MOSUNNY   64  55  72 S17G24    29.94F
6HR MIN TEMP:  58; 6HR MAX TEMP:  64;

MENOMINEE      SUNNY     70  53  54 S10       29.93F
6HR MIN TEMP:  58; 6HR MAX TEMP:  70;

SAWYER-GWINN   SUNNY     68  50  52 S22G28    29.89F
$$
MIZ001>003-009>011-084-211900-
WESTERN UPPER MICHIGAN

CITY           SKY/WX    TMP DP  RH WIND       PRES   REMARKS
IRON MOUNTAIN  SUNNY     70  52  52 SE12      29.85F
6HR MIN TEMP:  54; 6HR MAX TEMP:  71;

HOUGHTON       CLOUDY    69  50  50 S13       29.78F
6HR MIN TEMP:  62; 6HR MAX TEMP:  71;

COPPER HARBOR    N/A     67  48  50 SW12G22   29.78F
6HR MIN TEMP:  61; 6HR MAX TEMP:  69;

IRONWOOD       LGT RAIN  63  56  78 S15G24    29.75F
6HR MIN TEMP:  61; 6HR MAX TEMP:  66; 6HR PCP: TRACE;

$$

ABBREVIATIONS USED IN REMARKS
   TC - TEMPERATURE IN CELSIUS
  WCI - WIND CHILL INDEX
   HX - HEAT INDEX
  VSB - VISIBILITY




USA.gov is the U.S. government's official web portal to all federal, state and local government web resources and services.